Location: Albany
(35.0000°S, 118.0000°E)
Time: 20:37:35
(UTC-05:00)

Amateur Radio Satellites - All Passes

Search period start: 21 January 2017 20:07
Search period end: 22 January 2017 20:07
Location: Albany, 35.0000°S, 118.0000°E

Satellite Date Start Highest point End Downlink Frequencies (MHz)
Time Altitude Azimuth
Oscar 11 21 Jan 20:08:56 20:12:43 29° 277° (W) 20:16:34 145.826/435.025
RS-15 21 Jan 20:25:02 20:32:22 20° 79° (E) 20:39:30 29.354- 29.394
UNISAT 6 21 Jan 20:34:52 20:38:41 26° 84° (E) 20:42:23 437.425
TIGRISAT 21 Jan 20:47:31 20:51:39 34° 83° (E) 20:55:39 435.000
BY70-1 21 Jan 20:48:25 20:49:43 14° 106° (ESE) 20:50:59 436.1900
ESTCUBE 1 21 Jan 20:49:53 20:52:45 17° 113° (ESE) 20:55:38 437.505/2401.250
FUNcube-1 21 Jan 20:50:54 20:51:32 10° 271° (W) 20:52:09 145.935
AO-85 21 Jan 20:58:38 21:03:33 34° 126° (SE) 21:08:23 145.980
DELFI C3 21 Jan 21:01:15 21:04:10 20° 275° (W) 21:07:07 145.870
ANTELSAT 21 Jan 21:02:52 21:07:21 55° 80° (E) 21:11:40 437.575/2403.000
HUMSAT D 21 Jan 21:09:19 21:13:11 33° 277° (W) 21:17:06 437.325/437.525
PRISM 21 Jan 21:21:11 21:24:33 24° 250° (WSW) 21:27:55 437.425
CUBEBUG 1 21 Jan 21:36:26 21:40:14 31° 109° (ESE) 21:44:07 437.445
JAS-2 21 Jan 21:41:54 21:47:10 40° 83° (E) 21:52:03 435.910
ISS 21 Jan 21:42:02 21:44:13 16° 209° (SSW) 21:46:25 145.825
QB50P1 21 Jan 21:45:54 21:48:02 13° 87° (E) 21:50:07 145.935-145.965
POLYITAN 1 21 Jan 21:50:11 21:52:43 15° 87° (E) 21:55:15 437.675
QB50P2 21 Jan 21:51:12 21:54:04 17° 86° (E) 21:56:53 145.880/145.840
AISAT 21 Jan 21:56:35 22:00:34 34° 109° (ESE) 22:04:36 437.250
UNISAT 6 21 Jan 22:11:35 22:15:14 24° 249° (WSW) 22:18:47 437.425
POPSAT HIP 1 21 Jan 22:11:39 22:15:19 27° 84° (E) 22:18:56 437.405
DUCHIFAT 1 21 Jan 22:20:29 22:24:15 29° 83° (E) 22:27:57 145.980
TIGRISAT 21 Jan 22:24:51 22:28:02 19° 248° (WSW) 22:31:09 435.000
ESTCUBE 1 21 Jan 22:24:58 22:29:11 39° 279° (W) 22:33:28 437.505/2401.250
NANOSAT C BR1 21 Jan 22:26:37 22:30:39 38° 82° (E) 22:34:36 145.865
VELOX 1 21 Jan 22:29:23 22:33:47 78° 103° (ESE) 22:38:16 145.980
RS-15 21 Jan 22:31:52 22:43:18 87° 242° (WSW) 22:54:20 29.354- 29.394
PHONESAT 2.4 21 Jan 22:32:29 22:32:49 10° 36° (NE) 22:33:09 2401.200-2431.200
50 SAT 21 Jan 22:33:05 22:36:33 62° 104° (ESE) 22:40:04 437.505
AO-85 21 Jan 22:39:17 22:43:56 30° 291° (WNW) 22:48:28 145.980
ANTELSAT 21 Jan 22:41:42 22:43:28 12° 244° (WSW) 22:45:14 437.575/2403.000
PCSat 21 Jan 22:44:14 22:49:22 46° 69° (ENE) 22:54:33 145.827
SPROUT 21 Jan 22:46:55 22:51:14 90° 170° (S) 22:55:38 437.525
BUGSAT 1 21 Jan 22:49:17 22:52:36 21° 85° (E) 22:55:50 437.445
UKube-1 21 Jan 22:52:49 22:56:58 47° 107° (ESE) 23:01:10 .
DX 1 21 Jan 22:56:31 23:00:52 75° 105° (ESE) 23:05:17 434.975-435.025
BEESAT 3 21 Jan 23:00:29 23:02:40 14° 130° (SE) 23:04:50 437.485
CUBEBUG 1 21 Jan 23:13:24 23:16:32 19° 274° (W) 23:19:42 437.445
QB50P1 21 Jan 23:19:52 23:23:58 42° 253° (WSW) 23:27:59 145.935-145.965
POLYITAN 1 21 Jan 23:24:38 23:28:37 37° 252° (WSW) 23:32:32 437.675
QB50P2 21 Jan 23:26:01 23:29:54 33° 252° (WSW) 23:33:44 145.880/145.840
JAS-2 21 Jan 23:27:43 23:31:55 22° 244° (WSW) 23:35:51 435.910
Oscar 19 21 Jan 23:32:05 23:35:33 18° 86° (E) 23:38:59 437.125/150
YUBILEINY 21 Jan 23:32:32 23:40:37 39° 105° (ESE) 23:48:37 435.215
AISAT 21 Jan 23:34:03 23:37:04 18° 274° (W) 23:40:08 437.250
POPSAT HIP 1 21 Jan 23:47:37 23:50:54 21° 249° (WSW) 23:54:09 437.405
BEESAT 2 21 Jan 23:48:01 23:50:57 20° 128° (SE) 23:53:51 435.950
Cosmos 2504 21 Jan 23:48:10 23:55:22 27° 108° (ESE) 00:02:35 435.465 / 435.565
DUCHIFAT 1 21 Jan 23:56:35 23:59:41 20° 249° (WSW) 00:02:46 145.980
Gurwin Techsat 1B 21 Jan 23:58:41 00:02:07 17° 87° (E) 00:05:31 435.225
BEESAT 21 Jan 23:59:41 00:02:33 16° 115° (ESE) 00:05:27 436.000
SWISSCUBE 22 Jan 00:01:01 00:04:19 19° 114° (ESE) 00:07:37 437.505
NANOSAT C BR1 22 Jan 00:03:27 00:06:00 15° 247° (WSW) 00:08:30 145.865
PHONESAT 2.4 22 Jan 00:04:07 00:06:27 81° 205° (SSW) 00:08:49 2401.200-2431.200
AIST 1 22 Jan 00:04:13 00:08:42 87° 278° (W) 00:13:08
TISAT 1 22 Jan 00:09:22 00:13:36 75° 281° (W) 00:17:55 437.305
Cosmos 2491 22 Jan 00:17:35 00:25:49 45° 92° (E) 00:34:04 435.465 / 435.565
BUGSAT 1 22 Jan 00:24:19 00:27:53 26° 250° (WSW) 00:31:24 437.445
PCSat 22 Jan 00:28:44 00:32:57 23° 233° (SW) 00:37:13 145.827
UKube-1 22 Jan 00:31:22 00:33:12 12° 273° (W) 00:35:03 .
BEESAT 3 22 Jan 00:36:49 00:40:27 40° 294° (WNW) 00:44:03 437.485
RS-15 22 Jan 00:48:40 00:57:18 25° 218° (SW) 01:05:51 29.354- 29.394
ITUPSAT 1 22 Jan 01:01:30 01:06:18 71° 105° (ESE) 01:11:10 437.325
AO-7 22 Jan 01:06:22 01:10:03 13° 89° (E) 01:13:41 29.400- 29.500
Oscar 19 22 Jan 01:10:03 01:15:03 47° 252° (WSW) 01:20:00 437.125/150
MOZHAYETS 4 22 Jan 01:16:57 01:20:55 28° 110° (ESE) 01:24:55
CUSAT 1 22 Jan 01:22:54 01:27:45 32° 84° (E) 01:31:37 437.405
BEESAT 2 22 Jan 01:25:21 01:28:42 28° 292° (WNW) 01:32:03 435.950
YUBILEINY 22 Jan 01:29:19 01:37:18 41° 267° (W) 01:45:18 435.215
BEESAT 22 Jan 01:35:14 01:39:52 48° 280° (W) 01:44:35 436.000
Gurwin Techsat 1B 22 Jan 01:37:05 01:42:17 50° 252° (WSW) 01:47:26 435.225
SWISSCUBE 22 Jan 01:37:12 01:41:44 41° 279° (W) 01:46:19 437.505
PHONESAT 2.4 22 Jan 01:38:39 01:40:36 22° 187° (S) 01:42:34 2401.200-2431.200
Cosmos 2504 22 Jan 01:40:32 01:49:09 61° 271° (W) 01:57:51 435.465 / 435.565
KKS-1 22 Jan 01:45:40 01:48:42 18° 113° (ESE) 01:51:45 437.445
M-CUBED/EXP-1 PRIME 22 Jan 01:54:02 01:57:20 36° 113° (ESE) 02:00:54 437.505
ITAMSAT 1 22 Jan 01:56:28 02:01:31 46° 80° (E) 02:06:30 435.822/435.867
AIST 2 22 Jan 02:01:35 02:02:54 11° 133° (SE) 02:04:13 435.215
CUBESAT XI-V 22 Jan 02:08:43 02:11:14 15° 114° (ESE) 02:13:46 437.345
Cosmos 2491 22 Jan 02:14:44 02:22:39 36° 254° (WSW) 02:30:40 435.465 / 435.565
DANDE 22 Jan 02:27:21 02:34:28 50° 84° (E) 02:40:08 436.750
AUBIESAT-1 22 Jan 02:28:55 02:32:31 85° 108° (ESE) 02:36:28 437.475
STARS 22 Jan 02:33:22 02:37:04 27° 110° (ESE) 02:40:49 437.465
ISS 22 Jan 02:35:11 02:37:43 19° 149° (SSE) 02:40:13 145.825
BRITE-PL 22 Jan 02:47:42 02:50:02 13° 88° (E) 02:52:25 437.365/2234.400
MOZHAYETS 4 22 Jan 02:54:16 02:58:00 24° 275° (W) 03:01:46
AO-7 22 Jan 02:55:20 03:03:45 84° 73° (ENE) 03:12:07 29.400- 29.500
CUSAT 1 22 Jan 03:05:43 03:09:28 19° 259° (W) 03:12:38 437.405
PHONESAT 2.4 22 Jan 03:12:55 03:14:57 24° 170° (S) 03:16:58 2401.200-2431.200
RS-15 22 Jan 03:12:58 03:15:42 11° 181° (S) 03:18:25 29.354- 29.394
KKS-1 22 Jan 03:20:48 03:24:56 36° 278° (W) 03:29:07 437.445
M-CUBED/EXP-1 PRIME 22 Jan 03:30:46 03:32:02 11° 276° (W) 03:33:21 437.505
ITAMSAT 1 22 Jan 03:36:56 03:40:35 19° 245° (WSW) 03:44:12 435.822/435.867
AIST 2 22 Jan 03:37:44 03:41:47 64° 297° (WNW) 03:45:46 435.215
CUBESAT XI-V 22 Jan 03:43:41 03:48:08 48° 280° (W) 03:52:40 437.345
Cosmos 2499 22 Jan 03:57:38 04:02:41 16° 114° (ESE) 04:07:42 435.465 / 435.565
Cubesat XI-IV 22 Jan 04:05:54 04:07:13 11° 89° (E) 04:08:31 437.490
NOAA 15 22 Jan 04:07:51 04:09:54 12° 88° (E) 04:11:56 137.62
STARS 22 Jan 04:09:46 04:13:19 23° 276° (W) 04:16:56 437.465
ISS 22 Jan 04:11:08 04:14:21 42° 313° (NW) 04:17:30 145.825
DANDE 22 Jan 04:11:35 04:17:06 24° 257° (WSW) 04:21:45 436.750
LilacSat-2 22 Jan 04:16:34 04:18:10 12° 88° (E) 04:19:45 437.200
GOMX 1 22 Jan 04:18:32 04:23:42 46° 81° (E) 04:28:58 467.674
GONETS M04 22 Jan 04:21:43 04:27:10 18° 113° (ESE) 04:32:34
BRITE-PL 22 Jan 04:23:38 04:28:44 66° 256° (WSW) 04:34:09 437.365/2234.400
HORYU 2 22 Jan 04:24:21 04:28:46 52° 80° (E) 04:33:06 437.375
O/OREOS (USA 219) 22 Jan 04:32:43 04:37:10 51° 74° (ENE) 04:41:41 437.305
STRAND 1 22 Jan 04:35:22 04:38:41 17° 115° (ESE) 04:42:02 437.568
PHONESAT 2.4 22 Jan 04:46:41 04:49:01 70° 336° (NNW) 04:51:21 2401.200-2431.200
DOVE 4 22 Jan 04:48:54 04:53:53 38° 83° (E) 04:58:47 437.250
AO-7 22 Jan 04:49:55 04:55:29 20° 235° (SW) 05:01:04 29.400- 29.500
CUTE-I 22 Jan 04:58:46 05:03:53 41° 81° (E) 05:08:54 437.470
RS-15 22 Jan 05:26:10 05:34:20 23° 144° (SE) 05:42:34 29.354- 29.394
SO-50 22 Jan 05:27:47 05:31:34 27° 69° (ENE) 05:35:27 436.795
Cubesat XI-IV 22 Jan 05:42:20 05:47:47 76° 256° (WSW) 05:53:08 437.490
NOAA 15 22 Jan 05:44:48 05:50:05 68° 254° (WSW) 05:55:19 137.62
Cosmos 2499 22 Jan 05:48:02 05:57:01 86° 97° (E) 06:05:53 435.465 / 435.565
CANX-2 22 Jan 05:48:04 05:51:01 18° 86° (E) 05:53:58 2200.000
LilacSat-2 22 Jan 05:49:02 05:52:34 35° 254° (WSW) 05:56:02 437.200
SEEDS 22 Jan 05:56:23 05:58:01 12° 88° (E) 05:59:39 437.485
GOMX 1 22 Jan 05:57:30 06:01:23 21° 248° (WSW) 06:05:21 467.674
NOAA 18 22 Jan 06:01:21 06:07:00 85° 76° (ENE) 06:12:35 137.9125
HORYU 2 22 Jan 06:02:45 06:04:47 13° 245° (WSW) 06:06:48 437.375
CINEMA 3 22 Jan 06:04:46 06:09:40 52° 81° (E) 06:14:20 145.822/145.860
STRAND 1 22 Jan 06:12:22 06:17:24 51° 280° (W) 06:22:29 437.568
O/OREOS (USA 219) 22 Jan 06:14:20 06:16:53 14° 238° (WSW) 06:19:27 437.305
GONETS M04 22 Jan 06:16:13 06:25:01 84° 274° (W) 06:33:43
HO-68 22 Jan 06:22:34 06:29:31 47° 80° (E) 06:36:23 435.675
DOVE 4 22 Jan 06:27:01 06:31:16 24° 248° (WSW) 06:35:29 437.250
PRISM 22 Jan 06:34:18 06:35:27 11° 115° (ESE) 06:36:37 437.425
CUTE-I 22 Jan 06:39:31 06:43:35 22° 246° (WSW) 06:47:38 437.470
CUBEBUG 2 22 Jan 06:47:36 06:51:44 32° 83° (E) 06:55:39 437.445
CUTE 1.7 + AOD 2 22 Jan 06:53:02 06:57:19 83° 257° (WSW) 07:01:33 437.475
FUNcube-1 22 Jan 07:03:28 07:05:55 15° 88° (E) 07:08:20 145.935
SO-50 22 Jan 07:07:59 07:11:56 28° 233° (SW) 07:15:58 436.795
UWE-3 22 Jan 07:11:57 07:16:07 37° 83° (E) 07:20:06 435.000/436.395/437.385
CANX-2 22 Jan 07:23:08 07:26:52 30° 252° (WSW) 07:30:36 2200.000
ZACube-1 22 Jan 07:26:31 07:30:25 31° 83° (E) 07:34:10 437.345
SEEDS 22 Jan 07:29:51 07:33:54 45° 254° (WSW) 07:37:55 437.485
UNISAT 6 22 Jan 07:30:46 07:33:55 18° 113° (ESE) 07:37:05 437.425
COMPASS 1 22 Jan 07:31:23 07:35:34 69° 256° (WSW) 07:39:43 437.405
PCSat 22 Jan 07:36:01 07:40:00 20° 128° (SE) 07:43:56 145.827
RS-15 22 Jan 07:37:36 07:48:37 80° 120° (ESE) 08:00:01 29.354- 29.394
AAUSAT CUBESAT 2 22 Jan 07:40:39 07:44:50 71° 256° (WSW) 07:48:59 437.432
TIGRISAT 22 Jan 07:42:56 07:46:34 22° 111° (ESE) 07:50:13 435.000
CINEMA 3 22 Jan 07:43:22 07:46:14 16° 245° (WSW) 07:49:04 145.822/145.860
Cosmos 2499 22 Jan 07:43:43 07:48:57 17° 259° (W) 07:54:12 435.465 / 435.565
NOAA 18 22 Jan 07:44:52 07:46:50 12° 240° (WSW) 07:48:48 137.9125
JAS-2 22 Jan 07:50:57 07:55:38 18° 118° (ESE) 08:00:06 435.910
ANTELSAT 22 Jan 07:57:57 08:02:12 34° 109° (ESE) 08:06:30 437.575/2403.000
Oscar 11 22 Jan 07:58:41 08:03:03 64° 79° (E) 08:07:19 145.826/435.025
PRISM 22 Jan 08:06:16 08:10:14 51° 280° (W) 08:14:16 437.425
HO-68 22 Jan 08:10:48 08:16:53 30° 244° (WSW) 08:22:56 435.675
GONETS M04 22 Jan 08:16:55 08:20:21 13° 257° (WSW) 08:23:47
CUBEBUG 2 22 Jan 08:24:45 08:28:03 20° 248° (WSW) 08:31:15 437.445
FUNcube-1 22 Jan 08:38:17 08:42:19 37° 253° (WSW) 08:46:13 145.935
DELFI C3 22 Jan 08:40:22 08:44:23 63° 79° (E) 08:48:21 145.870
UWE-3 22 Jan 08:49:23 08:52:12 17° 247° (WSW) 08:54:57 435.000/436.395/437.385
HUMSAT D 22 Jan 08:55:32 08:59:33 47° 81° (E) 09:03:30 437.325/437.525
POPSAT HIP 1 22 Jan 09:01:59 09:04:19 14° 114° (ESE) 09:06:40 437.405
ZACube-1 22 Jan 09:03:22 09:06:25 19° 248° (WSW) 09:09:23 437.345
UNISAT 6 22 Jan 09:05:47 09:10:14 41° 278° (W) 09:14:45 437.425
DUCHIFAT 1 22 Jan 09:10:03 09:12:32 15° 113° (ESE) 09:15:03 145.980
NANOSAT C BR1 22 Jan 09:15:59 09:19:05 20° 111° (ESE) 09:22:12 145.865
PCSat 22 Jan 09:18:24 09:23:41 53° 292° (WNW) 09:28:55 145.827
TIGRISAT 22 Jan 09:18:46 09:22:59 32° 277° (W) 09:27:17 435.000
BY70-1 22 Jan 09:25:27 09:25:55 10° 82° (E) 09:26:22 436.1900
JAS-2 22 Jan 09:32:02 09:39:52 85° 284° (WNW) 09:47:10 435.910
ANTELSAT 22 Jan 09:35:22 09:38:54 21° 274° (W) 09:42:29 437.575/2403.000
BUGSAT 1 22 Jan 09:38:06 09:38:55 10° 115° (ESE) 09:39:45 437.445
RS-15 22 Jan 09:51:54 09:59:44 23° 282° (WNW) 10:07:48 29.354- 29.394
QB50P1 22 Jan 10:08:10 10:12:28 89° 88° (E) 10:16:51 145.935-145.965
POLYITAN 1 22 Jan 10:13:01 10:17:19 79° 282° (WNW) 10:21:43 437.675
QB50P2 22 Jan 10:14:22 10:18:39 71° 281° (W) 10:23:00 145.880/145.840
ESTCUBE 1 22 Jan 10:20:19 10:24:48 54° 79° (E) 10:29:14 437.505/2401.250
VELOX 1 22 Jan 10:23:36 10:26:51 19° 85° (E) 10:30:05 145.980
HUMSAT D 22 Jan 10:33:14 10:34:41 12° 246° (WSW) 10:36:06 437.325/437.525
Cosmos 2491 22 Jan 10:33:33 10:39:04 18° 113° (ESE) 10:44:32 435.465 / 435.565
POPSAT HIP 1 22 Jan 10:35:34 10:39:39 43° 279° (W) 10:43:50 437.405
SPROUT 22 Jan 10:36:53 10:40:05 20° 85° (E) 10:43:14 437.525
DUCHIFAT 1 22 Jan 10:43:49 10:47:50 40° 279° (W) 10:51:55 145.980
Oscar 19 22 Jan 10:45:57 10:49:33 19° 114° (ESE) 10:53:08 437.125/150
DX 1 22 Jan 10:49:08 10:52:01 17° 86° (E) 10:54:52 434.975-435.025
NANOSAT C BR1 22 Jan 10:50:46 10:54:33 30° 277° (W) 10:58:24 145.865
BY70-1 22 Jan 10:56:00 10:56:05 10° 253° (WSW) 10:56:09 436.1900
CUBEBUG 1 22 Jan 11:03:36 11:08:07 82° 257° (WSW) 11:12:35 437.445
BUGSAT 1 22 Jan 11:09:33 11:13:41 59° 281° (W) 11:17:56 437.445
AO-85 22 Jan 11:10:52 11:14:02 20° 72° (ENE) 11:17:24 145.980
Gurwin Techsat 1B 22 Jan 11:16:30 11:20:24 21° 114° (ESE) 11:24:19 435.225
JAS-2 22 Jan 11:22:01 11:25:26 13° 270° (W) 11:28:46 435.910
AISAT 22 Jan 11:25:37 11:30:09 75° 255° (WSW) 11:34:39 437.250
50 SAT 22 Jan 11:34:40 11:38:15 69° 256° (WSW) 11:41:47 437.505
TISAT 1 22 Jan 11:57:13 12:00:30 21° 85° (E) 12:03:45 437.305
ESTCUBE 1 22 Jan 11:59:04 12:01:05 13° 245° (WSW) 12:03:05 437.505/2401.250
VELOX 1 22 Jan 11:59:17 12:03:19 33° 251° (WSW) 12:07:20 145.980
AO-7 22 Jan 12:02:14 12:07:03 17° 126° (SE) 12:11:52 29.400- 29.500
SPROUT 22 Jan 12:12:11 12:15:59 29° 251° (WSW) 12:19:44 437.525
UKube-1 22 Jan 12:18:46 12:23:06 58° 254° (WSW) 12:27:23 .
Oscar 19 22 Jan 12:23:35 12:28:28 44° 279° (W) 12:33:25 437.125/150
DX 1 22 Jan 12:24:11 12:28:17 36° 252° (WSW) 12:32:19 434.975-435.025
Cosmos 2504 22 Jan 12:24:37 12:29:37 20° 99° (E) 12:34:50 435.465 / 435.565
Cosmos 2491 22 Jan 12:28:05 12:36:57 84° 275° (W) 12:45:41 435.465 / 435.565
YUBILEINY 22 Jan 12:29:00 12:37:15 49° 91° (E) 12:45:33 435.215
AIST 1 22 Jan 12:29:43 12:33:57 64° 86° (E) 12:38:18
JUGNU 22 Jan 12:34:40 12:38:23 17° 6° (N) 12:42:04 437.505
AO-85 22 Jan 12:49:57 12:54:08 37° 234° (SW) 12:58:40 145.980
Gurwin Techsat 1B 22 Jan 12:54:54 12:59:58 44° 279° (W) 13:05:07 435.225
ITUPSAT 1 22 Jan 13:06:02 13:09:53 23° 84° (E) 13:13:40 437.325
ITAMSAT 1 22 Jan 13:10:58 13:16:03 51° 108° (ESE) 13:21:10 435.822/435.867
TISAT 1 22 Jan 13:32:26 13:36:04 27° 250° (WSW) 13:39:38 437.305
BEESAT 22 Jan 13:38:28 13:43:13 55° 79° (E) 13:47:53 436.000
CUSAT 1 22 Jan 13:40:02 13:42:33 28° 276° (W) 13:45:25 437.405
SWISSCUBE 22 Jan 13:40:19 13:45:07 65° 78° (ENE) 13:49:50 437.505
AO-7 22 Jan 13:50:15 13:58:34 85° 108° (ESE) 14:06:58 29.400- 29.500
SO-50 22 Jan 14:02:51 14:05:12 13° 135° (SE) 14:07:33 436.795
SRMSAT 22 Jan 14:09:06 14:11:52 13° 12° (NNE) 14:14:38 437.500
Cosmos 2504 22 Jan 14:14:51 14:22:05 63° 261° (W) 14:29:56 435.465 / 435.565
JUGNU 22 Jan 14:22:49 14:26:41 18° 356° (N) 14:30:32 437.505
BEESAT 3 22 Jan 14:23:10 14:27:04 69° 63° (ENE) 14:30:59 437.485
YUBILEINY 22 Jan 14:26:42 14:34:12 32° 253° (WSW) 14:41:49 435.215
Cosmos 2491 22 Jan 14:28:46 14:32:17 13° 257° (WSW) 14:35:49 435.465 / 435.565
ITUPSAT 1 22 Jan 14:43:27 14:47:40 31° 250° (WSW) 14:51:50 437.325
O/OREOS (USA 219) 22 Jan 14:46:00 14:50:35 56° 112° (ESE) 14:55:03 437.305
MOZHAYETS 4 22 Jan 14:51:27 14:56:04 79° 255° (WSW) 15:00:38
ITAMSAT 1 22 Jan 14:52:28 14:55:44 17° 273° (W) 14:59:02 435.822/435.867
DANDE 22 Jan 14:54:39 14:56:03 13° 271° (W) 14:57:26 436.750
M-CUBED/EXP-1 PRIME 22 Jan 15:09:04 15:13:41 54° 75° (ENE) 15:18:17 437.505
BEESAT 2 22 Jan 15:12:52 15:16:51 77° 240° (WSW) 15:20:49 435.950
KKS-1 22 Jan 15:14:34 15:19:02 53° 80° (E) 15:23:26 437.445
BEESAT 22 Jan 15:18:00 15:20:28 14° 244° (WSW) 15:22:55 436.000
HORYU 2 22 Jan 15:19:01 15:23:02 32° 109° (ESE) 15:27:06 437.375
SWISSCUBE 22 Jan 15:20:31 15:22:16 12° 243° (WSW) 15:24:01 437.505
Cubesat XI-IV 22 Jan 15:23:50 15:26:48 15° 117° (ESE) 15:29:46 437.490
GOMX 1 22 Jan 15:24:16 15:27:57 29° 110° (ESE) 15:31:50 467.674
NOAA 15 22 Jan 15:24:26 15:27:30 16° 116° (ESE) 15:30:33 137.62
BRITE-PL 22 Jan 15:31:55 15:36:04 79° 283° (WNW) 15:40:22 437.365/2234.400
SO-50 22 Jan 15:41:23 15:46:14 78° 297° (WNW) 15:51:02 436.795
CUBESAT XI-V 22 Jan 15:43:14 15:47:50 53° 80° (E) 15:52:24 437.345
AUBIESAT-1 22 Jan 15:43:47 15:48:27 77° 251° (WSW) 15:53:04 437.475
NOAA 18 22 Jan 15:47:04 15:49:52 14° 118° (ESE) 15:52:41 137.9125
AO-7 22 Jan 15:47:13 15:52:06 17° 273° (W) 15:57:02 29.400- 29.500
DOVE 4 22 Jan 15:51:42 15:55:14 23° 112° (ESE) 15:58:58 437.250
SRMSAT 22 Jan 15:56:23 16:00:18 18° 2° (N) 16:04:12 437.500
STARS 22 Jan 16:01:16 16:05:47 81° 77° (ENE) 16:10:13 437.465
BEESAT 3 22 Jan 16:04:35 16:05:06 10° 227° (SW) 16:05:36 437.485
JUGNU 22 Jan 16:12:49 16:14:57 12° 346° (NNW) 16:17:04 437.505
CUTE-I 22 Jan 16:17:07 16:22:17 49° 108° (ESE) 16:27:32 437.470
LilacSat-2 22 Jan 16:26:51 16:30:43 64° 104° (ESE) 16:34:37 437.200
O/OREOS (USA 219) 22 Jan 16:28:08 16:29:23 11° 277° (W) 16:30:36 437.305
M-CUBED/EXP-1 PRIME 22 Jan 16:44:56 16:47:38 15° 241° (WSW) 16:50:21 437.505
HO-68 22 Jan 16:48:39 16:54:15 25° 118° (ESE) 16:59:53 435.675
KKS-1 22 Jan 16:53:01 16:55:04 13° 245° (WSW) 16:57:07 437.445
HORYU 2 22 Jan 16:56:18 16:59:35 20° 275° (W) 17:02:55 437.375
Cubesat XI-IV 22 Jan 17:00:54 17:06:15 64° 281° (WNW) 17:11:40 437.490
NOAA 15 22 Jan 17:01:31 17:06:43 59° 281° (W) 17:11:58 137.62
CINEMA 3 22 Jan 17:02:43 17:06:56 32° 110° (ESE) 17:11:20 145.822/145.860
GOMX 1 22 Jan 17:02:56 17:06:04 20° 273° (W) 17:09:20 467.674
GONETS M04 22 Jan 17:18:55 17:25:20 23° 98° (E) 17:31:43
CUBESAT XI-V 22 Jan 17:22:21 17:24:42 14° 246° (WSW) 17:27:03 437.345
NOAA 18 22 Jan 17:24:20 17:29:49 71° 283° (WNW) 17:35:26 137.9125
DOVE 4 22 Jan 17:28:54 17:32:44 28° 275° (W) 17:36:50 437.250
AIST 2 22 Jan 17:31:38 17:35:44 57° 65° (ENE) 17:39:48 435.215
CUTE 1.7 + AOD 2 22 Jan 17:42:06 17:46:09 43° 106° (ESE) 17:50:13 437.475
CUBEBUG 2 22 Jan 17:42:26 17:45:56 21° 112° (ESE) 17:49:29 437.445
SRMSAT 22 Jan 17:45:20 17:48:44 16° 352° (N) 17:52:08 437.500
CUTE-I 22 Jan 17:58:58 18:02:33 18° 273° (W) 18:06:11 437.470
UWE-3 22 Jan 18:05:35 18:09:14 23° 111° (ESE) 18:12:55 435.000/436.395/437.385
CANX-2 22 Jan 18:11:39 18:15:54 68° 280° (W) 18:20:11 2200.000
SEEDS 22 Jan 18:17:33 18:21:45 77° 103° (ESE) 18:26:00 437.485
COMPASS 1 22 Jan 18:18:24 18:22:24 48° 105° (ESE) 18:26:28 437.405
ZACube-1 22 Jan 18:19:18 18:22:30 19° 112° (ESE) 18:25:44 437.345
Cosmos 2499 22 Jan 18:20:21 18:27:45 75° 86° (E) 18:35:51 435.465 / 435.565
STRAND 1 22 Jan 18:26:05 18:31:16 73° 78° (ENE) 18:36:22 437.568
AAUSAT CUBESAT 2 22 Jan 18:27:11 18:31:09 46° 106° (ESE) 18:35:09 437.432
HO-68 22 Jan 18:34:29 18:41:28 56° 282° (WNW) 18:48:33 435.675
CINEMA 3 22 Jan 18:40:20 18:44:03 23° 274° (W) 18:47:55 145.822/145.860
Oscar 11 22 Jan 18:50:09 18:54:02 32° 108° (ESE) 18:57:57 145.826/435.025
GONETS M04 22 Jan 19:12:31 19:21:17 66° 261° (W) 19:30:07
ISS 22 Jan 19:12:31 19:15:21 27° 49° (NE) 19:18:14 145.825
AIST 2 22 Jan 19:12:33 19:14:31 13° 228° (SW) 19:16:29 435.215
CUBEBUG 2 22 Jan 19:17:53 19:22:14 36° 277° (W) 19:26:42 437.445
CUTE 1.7 + AOD 2 22 Jan 19:20:11 19:22:09 13° 272° (W) 19:24:08 437.475
DELFI C3 22 Jan 19:23:11 19:26:17 22° 109° (ESE) 19:29:24 145.870
FUNcube-1 22 Jan 19:29:11 19:33:47 79° 282° (WNW) 19:38:26 145.935
UWE-3 22 Jan 19:41:17 19:45:26 31° 277° (W) 19:49:41 435.000/436.395/437.385
HUMSAT D 22 Jan 19:43:42 19:47:04 23° 110° (ESE) 19:50:26 437.325/437.525
AO-85 22 Jan 19:45:32 19:47:44 12° 137° (SE) 19:49:56 145.980
PRISM 22 Jan 19:51:06 19:54:40 26° 83° (E) 19:58:11 437.425
RS-15 22 Jan 19:52:48 19:56:53 13° 82° (E) 20:00:53 29.354- 29.394
ZACube-1 22 Jan 19:54:12 19:58:28 37° 277° (W) 20:02:46 437.345
COMPASS 1 22 Jan 19:57:03 19:58:11 11° 272° (W) 19:59:18 437.405
